Location: Unspecified
(0.0000°N, 0.0000°E)
Time: 14:30:12
(UTC+00:00)

LightSail 2 - Pass Details

Date: 14 August 2019
Orbit: 701 x 732 km, 24.0° (Epoch: 21 August)

Event Time Altitude Azimuth Distance (km) Brightness Sun altitude
Rises 05:26:32 0° 314° (NW) 3,111 8.1 -9.3°
Reaches altitude 10° 05:29:18 10° 326° (NNW) 2,198 7.5 -8.6°
Maximum altitude 05:33:40 27° 24° (NNE) 1,367 7.1 -7.5°
Drops below altitude 10° 05:38:05 10° 81° (E) 2,214 9.5 -6.5°
Sets 05:40:52 0° 93° (E) 3,138 10.2 -5.8°
